[[{"header":{"parameterUnit":"m.s-1","parameterCategory":1,"la1":30.2991,"la2":30.254,"lo1":-89.0895,"lo2":-89.0444,"dy":0.0017,"dx":0.0017,"nx":28,"ny":28,"refTime":"2024-06-06T09:00:00:Z","depth":0,"parameterNumber":2,"parameterNumberName":"U-component_of_WINDS"},"data":[0,0,0,0,0,0,0,0,0,0,0,0,0,0,0,0,0,0,0,0,0,0,0,0,0,0,0,0,0,0,0,0,0,0,0,0,0,0,0,0,0,0,0,0,0,0,0,0,0,0,0,0,0,0,0,0,0,0,-1.1906,-1.1904,0,-1.1797,-1.1796,-1.1795,-1.1737,-1.1737,-1.1737,-1.1737,-1.1626,-1.1623,-1.162,0,0,0,0,0,0,0,0,0,0,0,0,0,-1.2065,-1.2062,-1.1906,-1.1904,-1.1903,-1.1798,-1.1796,-1.1795,-1.1737,-1.1737,-1.1737,-1.1737,-1.1627,-1.1623,-1.162,0,0,0,0,0,0,0,0,0,0,0,0,0,-1.198,-1.2061,-1.1906,-1.1862,-1.1857,-1.1798,-1.1796,-1.1794,-1.1738,-1.1737,-1.1737,-1.1737,-1.1628,-1.1624,-1.1619,-1.1596,0,0,-1.1606,-1.1604,0,0,0,0,0,0,0,0,-1.1985,-1.1974,-1.187,-1.1865,-1.1859,-1.1781,-1.1811,-1.1728,-1.1738,-1.1783,-1.1737,-1.1737,-1.1677,-1.1669,-1.1649,-1.1591,-1.1586,-1.1606,-1.1603,-1.1601,-1.16,0,0,0,0,0,0,0,-1.1991,-1.1979,-1.1863,-1.1868,-1.1862,-1.1848,-1.1836,-1.1795,-1.1732,-1.1779,-1.1774,-1.1762,-1.1675,-1.1653,-1.1646,-1.1584,-1.1606,-1.1602,-1.16,-1.1598,-1.1504,-1.1504,0,0,0,0,0,0,-1.2004,-1.1984,-1.1866,-1.186,-1.1923,-1.1845,-1.1832,-1.1806,-1.1733,-1.1721,-1.1763,-1.176,-1.1661,-1.1651,-1.1642,-1.1611,-1.1602,-1.1597,-1.1595,-1.1504,-1.1504,-1.1504,0,0,0,0,0,0,-1.2007,-1.1994,-1.1871,-1.1921,-1.1904,-1.1843,-1.1814,-1.1804,-1.1783,-1.172,-1.1709,-1.1752,-1.166,-1.1648,-1.1608,-1.1606,-1.1596,-1.1592,-1.1504,-1.1504,-1.1504,-1.1548,0,0,0,0,0,0,-1.2012,-1.1996,-1.1985,-1.1921,-1.1901,-1.1838,-1.1814,-1.1802,-1.1775,-1.1771,-1.1708,-1.1697,-1.1659,-1.1615,-1.1604,-1.16,-1.1588,-1.1504,-1.1504,-1.1504,-1.1547,-1.155,-1.1553,0,0,0,0,0,-1.2018,-1.2001,-1.1985,-1.1971,-1.1887,-1.1838,-1.1827,-1.1784,-1.1775,-1.1765,-1.1726,-1.1699,-1.1609,-1.1612,-1.1599,-1.1593,-1.1504,-1.1504,-1.1504,-1.1545,-1.1549,-1.1553,0,0,0,0,0,0,-1.2066,-1.1992,-1.1973,-1.1934,-1.1893,-1.1829,-1.1814,-1.1789,-1.1749,-1.1747,-1.1695,-1.1681,-1.1647,-1.1616,-1.1621,-1.1568,-1.1554,-1.1551,-1.1589,-1.1593,-1.1596,-1.1603,-1.1585,0,0,0,0,0,-1.2072,-1.2038,-1.1976,-1.1948,-1.1928,-1.1875,-1.1852,-1.1823,-1.1778,-1.176,-1.1717,-1.1675,-1.1637,-1.1613,-1.1575,-1.1543,-1.1529,-1.1533,-1.1536,-1.1539,-1.1537,-1.152,-1.1522,-1.1505,-1.1505,-1.1505,0,0,-1.2084,-1.204,-1.2021,-1.1956,-1.1921,-1.1888,-1.1861,-1.1826,-1.1801,-1.1755,-1.1715,-1.1683,-1.1633,-1.1597,-1.1579,-1.157,-1.1539,-1.1539,-1.1542,-1.1538,-1.1521,-1.1522,-1.1524,-1.1505,-1.1505,-1.1505,0,0,-1.2089,-1.2052,-1.2025,-1.1991,-1.1939,-1.1904,-1.1898,-1.1838,-1.1815,-1.1775,-1.174,-1.171,-1.1646,-1.1612,-1.1586,-1.1583,-1.1558,-1.1572,-1.1587,-1.1571,-1.1573,-1.1574,-1.1574,-1.1574,-1.1571,-1.1571,-1.1571,0,-1.2111,-1.2059,-1.2015,-1.1983,-1.1957,-1.1915,-1.1888,-1.1857,-1.1795,-1.1778,-1.1769,-1.1689,-1.1652,-1.1609,-1.1609,-1.1589,-1.1582,-1.1578,-1.1576,-1.1577,-1.1577,-1.1576,-1.1576,-1.1573,-1.1573,-1.1573,-1.1573,0,-1.2089,-1.2054,-1.2039,-1.1981,-1.1953,-1.1925,-1.1877,-1.1854,-1.1829,-1.1796,-1.1757,-1.1711,-1.1664,-1.1652,-1.1626,-1.1607,-1.1603,-1.1586,-1.157,-1.1581,-1.158,-1.1579,-1.1576,-1.1576,-1.1575,-1.1574,0,0,-1.2118,-1.2039,-1.2034,-1.2008,-1.1949,-1.1921,-1.1892,-1.1847,-1.1829,-1.1789,-1.1763,-1.1712,-1.1697,-1.1668,-1.1638,-1.1624,-1.1627,-1.1609,-1.1607,-1.1614,-1.1605,-1.1618,-1.1618,-1.161,-1.161,-1.161,-1.1609,0,-1.2115,-1.206,-1.2021,-1.1981,-1.195,-1.1911,-1.1886,-1.1848,-1.1817,-1.1786,-1.1752,-1.1717,-1.1699,-1.1682,-1.1666,-1.163,-1.1624,-1.1629,-1.1587,-1.1586,-1.1601,-1.1617,-1.163,-1.1632,-1.1608,-1.1608,-1.1608,0,-1.2103,-1.2065,-1.2023,-1.197,-1.1955,-1.1933,-1.189,-1.1861,-1.1818,-1.1796,-1.1766,-1.1737,-1.1706,-1.1694,-1.1651,-1.1656,-1.1637,-1.1617,-1.1616,-1.161,-1.1597,-1.1612,-1.1631,-1.1632,-1.1607,-1.1607,-1.1607,0,-1.2129,-1.2068,-1.2035,-1.2014,-1.1951,-1.1937,-1.191,-1.1867,-1.1843,-1.1806,-1.1791,-1.1751,-1.1728,-1.1699,-1.166,-1.1654,-1.1622,-1.1606,-1.1604,-1.1605,-1.1598,-1.1599,-1.1614,-1.1586,-1.1586,-1.1586,-1.1586,0,-1.213,-1.2105,-1.2047,-1.2026,-1.1999,-1.1956,-1.193,-1.19,-1.1863,-1.1837,-1.1802,-1.1778,-1.1728,-1.17,-1.1669,-1.164,-1.163,-1.1613,-1.1605,-1.1615,-1.1618,-1.1602,-1.1601,-1.1586,-1.1586,-1.1586,-1.1586,0,-1.2154,-1.2113,-1.2075,-1.202,-1.2006,-1.1988,-1.1941,-1.1921,-1.189,-1.1858,-1.1848,-1.1799,-1.1764,-1.1722,-1.1673,-1.1653,-1.1626,-1.1614,-1.1641,-1.1636,-1.1637,-1.1638,-1.1642,-1.1641,-1.1614,-1.1614,-1.1615,0,-1.2156,-1.2137,-1.208,-1.2061,-1.2036,-1.2004,-1.1981,-1.1939,-1.1916,-1.1868,-1.1854,-1.1816,-1.1783,-1.1729,-1.169,-1.1653,-1.164,-1.1645,-1.1634,-1.1647,-1.1641,-1.1643,-1.1641,-1.1647,-1.1647,-1.1648,-1.1648,0,-1.2165,-1.2147,-1.2114,-1.2076,-1.2049,-1.2016,-1.1982,-1.1969,-1.192,-1.1897,-1.1861,-1.1836,-1.1787,-1.1751,-1.171,-1.1683,-1.1658,-1.1652,-1.165,-1.166,-1.1677,-1.1669,-1.1649,-1.1652,-1.1651,-1.1651,-1.1651,-1.1651,-1.2178,-1.2161,-1.2119,-1.2085,-1.2055,-1.2025,-1.2004,-1.1972,-1.1941,-1.1898,-1.1876,-1.1841,-1.1802,-1.1744,-1.1719,-1.1692,-1.1683,-1.1679,-1.1678,-1.1678,-1.1682,-1.1682,-1.1684,-1.1684,-1.1684,-1.1683,-1.1683,0,-1.2186,-1.2158,-1.2128,-1.2082,-1.2056,-1.2036,-1.1999,-1.1978,-1.1948,-1.1913,-1.1883,-1.1844,-1.1809,-1.1768,-1.1732,-1.1718,-1.1706,-1.171,-1.171,-1.1705,-1.1691,-1.1697,-1.1721,-1.1721,-1.1721,-1.1721,-1.1721,-1.1721,-1.2187,-1.2156,-1.2134,-1.209,-1.2062,-1.2028,-1.2009,-1.1982,-1.1954,-1.1912,-1.1883,-1.1857,-1.1821,-1.1782,-1.1751,-1.174,-1.1728,-1.1735,-1.1721,-1.1709,-1.1706,-1.1703,-1.1708,-1.1733,-1.1733,-1.1737,-1.1737,-1.1738]},{"header":{"parameterUnit":"m.s-1","parameterCategory":1,"la1":30.2991,"la2":30.254,"lo1":-89.0895,"lo2":-89.0444,"dy":0.0017,"dx":0.0017,"nx":28,"ny":28,"refTime":"2024-06-06T09:00:00:Z","depth":0,"parameterNumber":3,"parameterNumberName":"V-component_of_WINDS"},"data":[0,0,0,0,0,0,0,0,0,0,0,0,0,0,0,0,0,0,0,0,0,0,0,0,0,0,0,0,0,0,0,0,0,0,0,0,0,0,0,0,0,0,0,0,0,0,0,0,0,0,0,0,0,0,0,0,0,0,2.2654,2.2654,0,2.266,2.266,2.266,2.2682,2.2683,2.2683,2.2684,2.2688,2.2688,2.2687,0,0,0,0,0,0,0,0,0,0,0,0,0,2.266,2.266,2.2654,2.2654,2.2654,2.266,2.266,2.266,2.2682,2.2683,2.2684,2.2684,2.2688,2.2688,2.2687,0,0,0,0,0,0,0,0,0,0,0,0,0,2.266,2.2659,2.2654,2.2666,2.2667,2.266,2.266,2.266,2.2682,2.2683,2.2684,2.2684,2.2688,2.2688,2.2687,2.2668,0,0,2.2686,2.2685,0,0,0,0,0,0,0,0,2.266,2.266,2.2664,2.2665,2.2666,2.2671,2.2663,2.2663,2.2682,2.2676,2.2684,2.2685,2.2682,2.2682,2.2681,2.2668,2.2669,2.2686,2.2685,2.2685,2.2685,0,0,0,0,0,0,0,2.266,2.266,2.2656,2.2664,2.2665,2.267,2.2671,2.2663,2.2674,2.2677,2.2678,2.2679,2.2683,2.2682,2.2681,2.2669,2.2686,2.2685,2.2685,2.2685,2.2639,2.2639,0,0,0,0,0,0,2.2659,2.266,2.2656,2.2656,2.2665,2.2669,2.2671,2.2669,2.2675,2.2676,2.2678,2.268,2.2682,2.2682,2.2682,2.2659,2.2685,2.2685,2.2684,2.264,2.2639,2.2638,0,0,0,0,0,0,2.2659,2.2658,2.2655,2.2658,2.2658,2.2669,2.2666,2.2668,2.2667,2.2676,2.2678,2.2675,2.2683,2.2682,2.2671,2.2659,2.2684,2.2684,2.2641,2.264,2.2639,2.2613,0,0,0,0,0,0,2.2659,2.2658,2.2651,2.2658,2.2658,2.2645,2.2665,2.2668,2.2667,2.2669,2.2674,2.2675,2.2683,2.2672,2.2671,2.2659,2.2683,2.2642,2.2641,2.2639,2.2615,2.2611,2.2607,0,0,0,0,0,2.2659,2.2644,2.2651,2.265,2.265,2.2645,2.2645,2.2655,2.2666,2.2658,2.2664,2.2675,2.2661,2.2671,2.2669,2.2657,2.2643,2.2641,2.2639,2.2616,2.2611,2.2607,0,0,0,0,0,0,2.2635,2.2645,2.2653,2.2639,2.2641,2.2649,2.264,2.265,2.2648,2.265,2.2663,2.2663,2.265,2.2653,2.2663,2.2638,2.2654,2.2652,2.2637,2.2632,2.2629,2.2628,2.2683,0,0,0,0,0,2.2628,2.2623,2.2632,2.2619,2.262,2.263,2.2628,2.2636,2.2638,2.2638,2.2643,2.2644,2.2639,2.2636,2.2633,2.2616,2.2616,2.2606,2.2603,2.26,2.2597,2.2587,2.2582,2.2632,2.2632,2.2632,0,0,2.2613,2.2618,2.2614,2.2614,2.2617,2.2611,2.263,2.2623,2.2619,2.2637,2.2626,2.263,2.2632,2.2617,2.2611,2.2619,2.2584,2.2597,2.2595,2.2594,2.2584,2.258,2.2575,2.263,2.2631,2.2631,0,0,2.2583,2.2587,2.2576,2.2578,2.2582,2.2589,2.2586,2.2592,2.2595,2.2585,2.2598,2.2593,2.2586,2.2586,2.2585,2.2556,2.2565,2.2554,2.2534,2.2524,2.252,2.2517,2.2504,2.25,2.2552,2.2552,2.2552,0,2.2564,2.2557,2.2569,2.2562,2.2561,2.2578,2.2566,2.2568,2.2569,2.2568,2.2577,2.2568,2.257,2.2555,2.2548,2.2548,2.2544,2.2553,2.252,2.2516,2.2513,2.2502,2.2498,2.255,2.255,2.2551,2.2551,0,2.2533,2.2527,2.2518,2.252,2.2518,2.2508,2.2519,2.2515,2.2524,2.2529,2.2518,2.2522,2.2519,2.2516,2.2524,2.2502,2.2507,2.2518,2.2533,2.2507,2.2496,2.2492,2.2548,2.2549,2.2549,2.255,0,0,2.2487,2.2496,2.2492,2.2493,2.2498,2.2493,2.2484,2.2482,2.2478,2.2479,2.247,2.2464,2.2474,2.2473,2.2481,2.2473,2.2447,2.2484,2.2485,2.2476,2.2421,2.2412,2.2407,2.2454,2.2453,2.2453,2.242,0,2.2457,2.2442,2.2454,2.2436,2.2431,2.2447,2.2439,2.2441,2.2446,2.2441,2.2446,2.2441,2.2455,2.2455,2.2447,2.2452,2.2436,2.2454,2.2445,2.2444,2.2442,2.2401,2.2391,2.2361,2.2417,2.2416,2.2415,0,2.2421,2.242,2.2402,2.2408,2.2406,2.2398,2.2397,2.2393,2.2395,2.2399,2.2398,2.2408,2.2398,2.2415,2.2401,2.2413,2.241,2.2412,2.2411,2.2409,2.2427,2.2397,2.2351,2.2346,2.2409,2.241,2.241,0,2.2387,2.2382,2.237,2.237,2.2377,2.2371,2.2374,2.2377,2.2374,2.2373,2.2371,2.2369,2.2367,2.2364,2.2373,2.2384,2.2357,2.2375,2.2359,2.2359,2.2351,2.2351,2.2303,2.2352,2.2352,2.2352,2.2352,0,2.2352,2.234,2.2355,2.2348,2.2335,2.2348,2.2334,2.2338,2.2341,2.2334,2.2348,2.2341,2.2354,2.2348,2.2355,2.2341,2.2341,2.2343,2.2344,2.2341,2.234,2.2338,2.2339,2.2351,2.2351,2.2351,2.2352,0,2.2311,2.2321,2.2309,2.2317,2.2318,2.2308,2.2314,2.2307,2.2314,2.2304,2.2303,2.2312,2.2306,2.2315,2.231,2.2314,2.2295,2.2301,2.2295,2.2296,2.2279,2.228,2.2226,2.2219,2.2274,2.2273,2.2273,0,2.2287,2.2278,2.2285,2.2282,2.2283,2.2278,2.2276,2.2288,2.2285,2.2287,2.2279,2.2274,2.2271,2.226,2.2265,2.2261,2.2266,2.2247,2.2265,2.2261,2.2263,2.2263,2.2262,2.2243,2.2242,2.2242,2.2241,0,2.2243,2.2248,2.2245,2.2243,2.224,2.2239,2.2239,2.2236,2.2249,2.2244,2.2238,2.2236,2.223,2.2225,2.2222,2.2223,2.2234,2.2236,2.2232,2.2227,2.2223,2.2223,2.2283,2.2237,2.2237,2.2238,2.2238,2.2238,2.2209,2.2201,2.2205,2.22,2.2202,2.2202,2.2195,2.2201,2.2196,2.2193,2.2201,2.2193,2.2194,2.2191,2.2192,2.2185,2.2193,2.2187,2.2185,2.2183,2.218,2.2225,2.2185,2.2185,2.2185,2.2185,2.2185,0,2.2164,2.2167,2.2163,2.2163,2.2159,2.2171,2.2171,2.2167,2.216,2.2161,2.2157,2.215,2.2145,2.215,2.2145,2.2139,2.2143,2.2137,2.2136,2.2136,2.2174,2.2177,2.2133,2.2133,2.2133,2.2133,2.2133,2.2133,2.214,2.2128,2.2134,2.2122,2.2125,2.2118,2.2117,2.2116,2.2117,2.2108,2.2104,2.2108,2.211,2.2106,2.2101,2.2103,2.2099,2.2091,2.2094,2.2129,2.2134,2.2139,2.2142,2.2091,2.2091,2.2057,2.2056,2.2056]}]]